Overview Statistics Trail Chart Weather Telemetry Raw packets
 

This is the latest recevied weather packets stored in our database for station/object SV9TNF-55. If no packets are shown the sender has not sent any weather packets the latest 10 day(s).

<< 42 43 44 45 46 47 48 >>
Time Temp. Humidity Pressure Rain* Wind** Luminosity Snow
1788013603 20.56° C 66% 1015.2 hPa 0 mm 4.92 m/s, 292° - -
1788013003 20.56° C 65% 1015.2 hPa 0 mm 4.02 m/s, 292° - -
1788012402 20.56° C 66% 1015.3 hPa 0 mm 3.58 m/s, 292° - -
1788011802 20.56° C 64% 1015.2 hPa 0 mm 4.47 m/s, 292° - -
1788011202 21.11° C 64% 1015.3 hPa 0 mm 5.36 m/s, 292° - -
1788010602 21.67° C 62% 1015.2 hPa 0 mm 5.36 m/s, 292° - -
1788010002 21.67° C 61% 1015 hPa 0 mm 4.47 m/s, 292° - -
1788009402 21.67° C 61% 1015.1 hPa 0 mm 4.92 m/s, 292° - -
1788008802 21.67° C 60% 1015.1 hPa 0 mm 4.47 m/s, 315° - -
1788008203 22.22° C 59% 1015.2 hPa 0 mm 4.47 m/s, 315° - -
1788007601 22.22° C 60% 1015.1 hPa 0 mm 4.47 m/s, 292° - -
1788007009 22.22° C 60% 1015.1 hPa 0 mm 4.02 m/s, 315° - -
1788006402 22.22° C 59% 1015.1 hPa 0 mm 3.13 m/s, 315° - -
1788005802 22.22° C 60% 1015.1 hPa 0 mm 2.68 m/s, 292° - -
1788005201 22.22° C 61% 1015.3 hPa 0 mm 3.58 m/s, 292° - -
1788004602 22.22° C 60% 1015.5 hPa 0 mm 4.02 m/s, 292° - -
1788004001 22.22° C 61% 1015.3 hPa 0 mm 4.02 m/s, 337° - -
1788003401 22.22° C 60% 1015.3 hPa 0 mm 3.13 m/s, 315° - -
1788002801 22.22° C 60% 1015.2 hPa 0 mm 4.92 m/s, 292° - -
1788002201 22.22° C 58% 1015.1 hPa 0 mm 3.58 m/s, 315° - -
1788001600 23.33° C 58% 1015 hPa 0 mm 2.68 m/s, 315° - -
1788001000 22.78° C 60% 1015 hPa 0 mm 2.68 m/s, 292° - -
1788000400 22.78° C 59% 1015 hPa 0 mm 2.24 m/s, 270° - -
1787999800 22.78° C 59% 1015.1 hPa 0 mm 1.34 m/s, 270° - -
1787999200 22.22° C 60% 1015.1 hPa 0 mm 3.58 m/s, 292° - -

* Rain latest hour (hover to see other rain measurements)
** Current wind speed in m/s (hover to see current wind gust speed)